| time (UTC) | temp C | wind direction | speed KPH | gust KPH | rain 1hr cm | rain 24hr cm | rain mn cm | humidity % | barometer mb |
| 20260506104015 | 13 | 338 | 8.0 | 14.5 | 0.00 | 0.00 | 0.00 | 78 | 1011.7 |
| 20260506103017 | 13 | 338 | 11.3 | 16.1 | 0.00 | 0.00 | 0.00 | 77 | 1011.5 |
| 20260506102015 | 13 | 338 | 8.0 | 12.9 | 0.00 | 0.00 | 0.00 | 77 | 1011.2 |
| 20260506101037 | 14 | 315 | 6.4 | 11.3 | 0.00 | 0.00 | 0.00 | 77 | 1011.2 |
| 20260506100018 | 14 | 338 | 3.2 | 4.8 | 0.00 | 0.00 | 0.00 | 78 | 1010.9 |
| 20260506095017 | 14 | 0 | 8.0 | 11.3 | 0.00 | 0.00 | 0.00 | 78 | 1010.7 |
| 20260506094035 | 14 | 0 | 3.2 | 4.8 | 0.00 | 0.00 | 0.00 | 78 | 1010.9 |
| 20260506093017 | 14 | 0 | 1.6 | 6.4 | 0.00 | 0.00 | 0.00 | 78 | 1010.7 |
| 20260506092017 | 14 | 0 | 4.8 | 11.3 | 0.00 | 0.00 | 0.00 | 78 | 1010.7 |
| 20260506091017 | 14 | 0 | 4.8 | 8.0 | 0.00 | 0.00 | 0.00 | 78 | 1010.7 |
| 20260506090018 | 15 | 338 | 3.2 | 8.0 | 0.00 | 0.00 | 0.00 | 79 | 1010.5 |
| 20260506085017 | 15 | 0 | 6.4 | 9.7 | 0.00 | 0.00 | 0.00 | 79 | 1010.5 |
| 20260506084017 | 15 | 338 | 3.2 | 4.8 | 0.00 | 0.00 | 0.00 | 79 | 1010.3 |
| 20260506083037 | 15 | 0 | 11.3 | 17.7 | 0.00 | 0.00 | 0.00 | 78 | 1010.4 |
| 20260506082017 | 15 | 338 | 3.2 | 4.8 | 0.00 | 0.00 | 0.00 | 78 | 1010.3 |
| 20260506081017 | 15 | 338 | 6.4 | 9.7 | 0.00 | 0.00 | 0.00 | 78 | 1010.2 |
| 20260506073017 | 15 | 315 | 3.2 | 6.4 | 0.00 | 0.00 | 0.00 | 79 | 1009.6 |
| 20260506072017 | 15 | 338 | 4.8 | 8.0 | 0.00 | 0.00 | 0.00 | 78 | 1009.8 |
| 20260506071017 | 15 | 90 | 9.7 | 17.7 | 0.00 | 0.00 | 0.00 | 79 | 1009.7 |
| 20260506062017 | 16 | 0 | 3.2 | 4.8 | 0.00 | 0.00 | 0.00 | 79 | 1009.7 |
| 20260506061017 | 16 | 0 | 3.2 | 4.8 | 0.00 | 0.00 | 0.00 | 80 | 1009.7 |
| 20260506051037 | 17 | 23 | 3.2 | 8.0 | 0.00 | 0.00 | 0.00 | 81 | 1009.8 |
| 20260506050109 | 17 | 338 | 8.0 | 14.5 | 0.00 | 0.00 | 0.00 | 80 | 1009.5 |
| 20260506044717 | 17 | 0 | 4.8 | 8.0 | 0.00 | 0.00 | 0.00 | 80 | 1009.5 |
| 20260506043717 | 17 | 338 | 8.0 | 11.3 | 0.00 | 0.00 | 0.00 | 80 | 1009.7 |
| 20260506042717 | 17 | 338 | 8.0 | 16.1 | 0.00 | 0.00 | 0.00 | 80 | 1009.6 |
| 20260506041717 | 17 | 338 | 8.0 | 17.7 | 0.00 | 0.00 | 0.00 | 80 | 1009.4 |
| 20260506040717 | 17 | 338 | 11.3 | 16.1 | 0.00 | 0.00 | 0.00 | 79 | 1009.3 |
| 20260506035717 | 18 | 338 | 8.0 | 14.5 | 0.00 | 0.00 | 0.00 | 79 | 1008.9 |
| 20260506034717 | 18 | 315 | 6.4 | 17.7 | 0.00 | 0.00 | 0.00 | 79 | 1008.8 |
| 20260506033717 | 18 | 338 | 6.4 | 9.7 | 0.00 | 0.00 | 0.00 | 79 | 1008.6 |
| 20260506032717 | 19 | 0 | 3.2 | 6.4 | 0.00 | 0.00 | 0.00 | 79 | 1008.5 |
| 20260506031717 | 20 | 338 | 11.3 | 19.3 | 0.00 | 0.00 | 0.00 | 78 | 1008.3 |
| 20260506030717 | 20 | 338 | 9.7 | 16.1 | 0.00 | 0.00 | 0.00 | 78 | 1008.1 |
| 20260506025716 | 20 | 338 | 4.8 | 11.3 | 0.00 | 0.00 | 0.00 | 78 | 1008.0 |
| 20260506024716 | 20 | 338 | 9.7 | 14.5 | 0.00 | 0.00 | 0.00 | 77 | 1008.0 |
| 20260506023737 | 21 | 0 | 11.3 | 14.5 | 0.00 | 0.00 | 0.00 | 77 | 1007.7 |
| 20260506022717 | 21 | 338 | 9.7 | 16.1 | 0.00 | 0.00 | 0.00 | 77 | 1007.3 |
| 20260506021718 | 21 | 338 | 4.8 | 8.0 | 0.00 | 0.00 | 0.00 | 76 | 1007.0 |
| 20260506020716 | 21 | 315 | 6.4 | 9.7 | 0.00 | 0.00 | 0.00 | 75 | 1006.9 |
| 20260506015737 | 21 | 315 | 6.4 | 12.9 | 0.00 | 0.00 | 0.00 | 75 | 1006.4 |
| 20260506014716 | 21 | 338 | 4.8 | 8.0 | 0.00 | 0.00 | 0.00 | 74 | 1006.2 |
| 20260506013717 | 21 | 315 | 8.0 | 12.9 | 0.00 | 0.00 | 0.00 | 74 | 1006.2 |
| 20260506012717 | 21 | 0 | 6.4 | 9.7 | 0.00 | 0.00 | 0.00 | 74 | 1005.7 |
| 20260506011717 | 22 | 315 | 9.7 | 12.9 | 0.00 | 0.00 | 0.00 | 74 | 1006.0 |
| 20260506010738 | 22 | 338 | 12.9 | 20.9 | 0.00 | 0.00 | 0.00 | 73 | 1006.0 |
| 20260506005716 | 22 | 23 | 3.2 | 9.7 | 0.00 | 0.00 | 0.00 | 73 | 1005.9 |
| 20260506004717 | 23 | 338 | 3.2 | 11.3 | 0.00 | 0.00 | 0.00 | 73 | 1005.7 |
| 20260506003757 | 23 | 338 | 4.8 | 9.7 | 0.00 | 0.00 | 0.00 | 70 | 1005.1 |
| 20260506002716 | 23 | 338 | 11.3 | 14.5 | 0.00 | 0.00 | 0.00 | 68 | 1005.0 |
| 20260506001717 | 24 | 338 | 4.8 | 11.3 | 0.00 | 0.00 | 0.00 | 69 | 1004.8 |
| 20260506000717 | 25 | 338 | 6.4 | 12.9 | 0.00 | 0.00 | 0.00 | 68 | 1004.9 |
| 20260505235758 | 26 | 338 | 11.3 | 14.5 | 0.00 | 0.00 | 0.00 | 67 | 1004.7 |
| 20260505234716 | 26 | 338 | 12.9 | 22.5 | 0.00 | 0.00 | 0.00 | 66 | 1004.5 |
| 20260505233716 | 27 | 338 | 12.9 | 20.9 | 0.00 | 0.00 | 0.00 | 65 | 1004.5 |
| 20260505232716 | 28 | 338 | 11.3 | 16.1 | 0.00 | 0.00 | 0.00 | 64 | 1004.5 |
| 20260505231737 | 28 | 315 | 4.8 | 9.7 | 0.00 | 0.00 | 0.00 | 63 | 1004.4 |
| 20260505230716 | 28 | 315 | 6.4 | 12.9 | 0.00 | 0.00 | 0.00 | 61 | 1004.1 |
| 20260505225717 | 29 | 338 | 11.3 | 22.5 | 0.00 | 0.00 | 0.00 | 60 | 1003.9 |
| 20260505224717 | 30 | 338 | 8.0 | 11.3 | 0.00 | 0.00 | 0.00 | 57 | 1003.7 |
| 20260505223717 | 30 | 338 | 4.8 | 11.3 | 0.00 | 0.00 | 0.00 | 55 | 1003.8 |
| 20260505222717 | 30 | 315 | 6.4 | 8.0 | 0.00 | 0.00 | 0.00 | 54 | 1003.6 |
| 20260505221717 | 31 | 315 | 9.7 | 12.9 | 0.00 | 0.00 | 0.00 | 52 | 1003.3 |
| 20260505220716 | 31 | 315 | 8.0 | 14.5 | 0.00 | 0.00 | 0.00 | 52 | 1003.2 |
| 20260505215716 | 32 | 0.0 | 1.6 | 0.00 | 0.00 | 0.00 | 52 | 1003.2 | |
| 20260505214716 | 33 | 315 | 3.2 | 8.0 | 0.00 | 0.00 | 0.00 | 52 | 1003.4 |
| 20260505213716 | 33 | 338 | 1.6 | 6.4 | 0.00 | 0.00 | 0.00 | 53 | 1003.4 |
| 20260505212736 | 33 | 135 | 3.2 | 8.0 | 0.00 | 0.00 | 0.00 | 53 | 1003.4 |
| 20260505211716 | 33 | 180 | 1.6 | 4.8 | 0.00 | 0.00 | 0.00 | 54 | 1003.6 |
| 20260505210737 | 33 | 180 | 1.6 | 4.8 | 0.00 | 0.00 | 0.00 | 55 | 1003.7 |
| 20260505205716 | 33 | 0.0 | 1.6 | 0.00 | 0.00 | 0.00 | 55 | 1003.8 | |
| 20260505204716 | 33 | 203 | 3.2 | 4.8 | 0.00 | 0.00 | 0.00 | 55 | 1003.8 |
| 20260505203716 | 33 | 158 | 1.6 | 3.2 | 0.00 | 0.00 | 0.00 | 56 | 1004.0 |
| 20260505202716 | 33 | 158 | 3.2 | 8.0 | 0.00 | 0.00 | 0.00 | 56 | 1004.3 |
| 20260505201716 | 33 | 180 | 6.4 | 9.7 | 0.00 | 0.00 | 0.00 | 57 | 1004.2 |
| 20260505200716 | 33 | 113 | 1.6 | 4.8 | 0.00 | 0.00 | 0.00 | 59 | 1004.3 |
| 20260505195716 | 32 | 203 | 4.8 | 16.1 | 0.00 | 0.00 | 0.00 | 59 | 1004.4 |
| 20260505194716 | 32 | 248 | 1.6 | 3.2 | 0.00 | 0.00 | 0.00 | 60 | 1004.5 |
| 20260505193717 | 32 | 158 | 4.8 | 8.0 | 0.00 | 0.00 | 0.00 | 61 | 1004.5 |
| 20260505192716 | 31 | 180 | 4.8 | 12.9 | 0.00 | 0.00 | 0.00 | 62 | 1004.5 |
| 20260505191756 | 31 | 248 | 6.4 | 17.7 | 0.00 | 0.00 | 0.00 | 63 | 1004.7 |
| 20260505190716 | 31 | 135 | 3.2 | 8.0 | 0.00 | 0.00 | 0.00 | 65 | 1004.4 |
| 20260505185716 | 30 | 180 | 4.8 | 6.4 | 0.00 | 0.00 | 0.00 | 64 | 1004.5 |
| 20260505184716 | 30 | 203 | 8.0 | 12.9 | 0.00 | 0.00 | 0.00 | 65 | 1004.5 |
| 20260505183716 | 30 | 248 | 3.2 | 8.0 | 0.00 | 0.00 | 0.00 | 67 | 1004.7 |
| 20260505182736 | 30 | 203 | 4.8 | 8.0 | 0.00 | 0.00 | 0.00 | 66 | 1004.8 |
| 20260505181757 | 30 | 180 | 6.4 | 12.9 | 0.00 | 0.00 | 0.00 | 67 | 1004.7 |
| 20260505180716 | 30 | 248 | 8.0 | 12.9 | 0.00 | 0.00 | 0.00 | 66 | 1004.9 |
| 20260505175716 | 30 | 180 | 6.4 | 11.3 | 0.00 | 0.00 | 0.00 | 66 | 1004.9 |
| 20260505174736 | 30 | 180 | 9.7 | 17.7 | 0.00 | 0.00 | 0.00 | 66 | 1004.8 |
| 20260505173716 | 29 | 225 | 4.8 | 9.7 | 0.00 | 0.00 | 0.00 | 69 | 1004.8 |
| 20260505172716 | 29 | 203 | 6.4 | 11.3 | 0.00 | 0.00 | 0.00 | 69 | 1004.9 |
| 20260505171716 | 28 | 158 | 6.4 | 12.9 | 0.00 | 0.00 | 0.00 | 69 | 1004.9 |
| 20260505170716 | 28 | 180 | 9.7 | 16.1 | 0.00 | 0.00 | 0.00 | 70 | 1005.0 |
| 20260505165716 | 28 | 180 | 6.4 | 12.9 | 0.00 | 0.00 | 0.00 | 72 | 1004.9 |
| 20260505164736 | 27 | 158 | 11.3 | 17.7 | 0.00 | 0.00 | 0.00 | 72 | 1004.9 |
| 20260505163716 | 27 | 225 | 11.3 | 17.7 | 0.00 | 0.00 | 0.00 | 73 | 1004.8 |
| 20260505162716 | 27 | 203 | 9.7 | 14.5 | 0.00 | 0.00 | 0.00 | 74 | 1004.8 |
| 20260505161736 | 27 | 225 | 12.9 | 24.1 | 0.00 | 0.00 | 0.00 | 74 | 1004.7 |
| 20260505160716 | 26 | 180 | 6.4 | 12.9 | 0.00 | 0.00 | 0.00 | 75 | 1004.7 |
| 20260505152716 | 25 | 203 | 12.9 | 22.5 | 0.00 | 0.00 | 0.00 | 79 | 1004.5 |
| 20260505151736 | 25 | 180 | 14.5 | 24.1 | 0.00 | 0.00 | 0.00 | 79 | 1004.6 |
| 20260505150716 | 25 | 180 | 6.4 | 16.1 | 0.00 | 0.00 | 0.00 | 80 | 1004.6 |
| 20260505124715 | 22 | 180 | 8.0 | 12.9 | 0.00 | 0.00 | 0.00 | 87 | 1003.9 |
| 20260505123715 | 22 | 180 | 9.7 | 14.5 | 0.00 | 0.00 | 0.00 | 87 | 1004.0 |
| 20260505122715 | 22 | 203 | 11.3 | 17.7 | 0.00 | 0.00 | 0.00 | 87 | 1003.9 |
| 20260505121735 | 22 | 203 | 8.0 | 12.9 | 0.00 | 0.00 | 0.00 | 87 | 1003.7 |
| 20260505120715 | 22 | 203 | 12.9 | 17.7 | 0.00 | 0.00 | 0.00 | 87 | 1003.6 |
| 20260505115716 | 22 | 203 | 11.3 | 20.9 | 0.00 | 0.00 | 0.00 | 87 | 1003.7 |
| 20260505114716 | 22 | 203 | 12.9 | 22.5 | 0.00 | 0.00 | 0.00 | 87 | 1003.6 |
| 20260505113735 | 22 | 158 | 11.3 | 16.1 | 0.00 | 0.00 | 0.00 | 87 | 1003.4 |
| 20260505112718 | 22 | 180 | 14.5 | 22.5 | 0.00 | 0.00 | 0.00 | 87 | 1003.4 |
| 20260505111717 | 22 | 180 | 9.7 | 14.5 | 0.00 | 0.00 | 0.00 | 86 | 1003.5 |
| 20260505110717 | 22 | 180 | 12.9 | 19.3 | 0.00 | 0.00 | 0.00 | 86 | 1003.5 |